User: anonymous
Location: Bishop's University Astronomical Observatory
(45.3661°N, 71.8475°W)
Time: 06:21:14
(UTC-04:00)
Language:

Meteor 2-5 Rocket - Orbit

View from above orbital plane
View from above orbital plane
View from above satellite
View from above satellite

Ground track
Ground track

The orbit data is extracted from the following two-line orbital elements,

1 11608U 79095B   14265.05442769 -.00000063  00000-0 -45683-4 0  6517
2 11608 081.2114 100.5075 0055740 089.7578 066.2602 14.06020746789677
Epoch (UTC): 22 September 2014 01:18:22
Eccentricity: 0.0055740
inclination: 81.2114°
perigee height: 832 km
apogee height: 913 km
right ascension of ascending node: 100.5075°
argument of perigee: 89.7578°
revolutions per day: 14.06020746
mean anomaly at epoch: 66.2602°
orbit number at epoch: 78967

The dashed part of the orbit path shows where the satellite is in the earth's shadow,  

DLR